Wind_Speed
5 4 3 4 3 4 3 6 2 3 2 2 3 3 3 2 4 3 4 13 13 14 12 10 8 8 8 9 11 12 12 11 10 10 11 12 13 15 15 12 10 11 13 14 13 12 13 13 14
4 4 6 3 4 2 4 4 6 6 2 4 3 2 3 4 8 4 10 13 13 13 11 9 9 9 9 9 9 9 9 9 9 9 9 10 11 13 16 17 18 13 11 13 15 15 12 14 14
5 7 3 4 3 4 4 5 5 2 4 3 2 4 3 3 6 4 10 13 13 12 11 9 9 8 7 7 7 8 8 8 9 9 9 10 10 12 13 15 17 19 17 13 13 14 14 13 14
6 5 5 3 5 6 5 3 4 2 4 5 2 5 5 8 3 5 10 12 12 11 10 9 8 7 6 7 7 7 8 8 8 8 9 10 10 11 12 13 15 17 18 18 15 15 15 14 13
7 3 3 1 4 5 5 6 6 4 2 3 4 4 5 7 12 7 9 10 10 9 9 8 7 6 6 6 6 6 7 7 8 9 9 11 12 12 13 13 14 15 17 21 20 16 15 15 13
4 3 3 3 4 5 5 7 5 4 4 3 4 5 6 7 8 9 9 9 9 8 8 8 7 7 6 6 6 6 7 8 9 10 12 13 14 15 15 16 16 15 17 19 22 21 16 15 15
5 4 4 2 4 5 4 5 3 4 3 7 4 3 4 6 7 10 11 11 10 10 9 8 8 7 7 7 7 7 8 9 11 13 13 14 15 15 16 17 18 18 18 19 20 20 20 22 20
4 4 3 4 3 5 1 5 3 7 6 4 7 6 5 2 8 11 14 13 12 12 11 9 8 7 7 7 7 8 9 11 13 14 15 15 16 16 16 17 17 18 19 20 20 17 21 21 19
5 3 2 4 6 3 3 3 4 4 6 6 8 13 10 8 9 14 16 16 15 14 12 10 9 7 7 7 8 10 11 13 15 16 17 18 17 17 17 17 17 17 18 20 20 18 19 21 21
4 3 8 4 4 3 2 4 3 3 5 8 16 21 19 16 15 17 17 17 16 13 11 10 10 8 9 9 10 12 13 14 16 17 18 18 18 18 18 17 16 17 17 18 18 18 18 19 18
5 5 4 3 8 6 3 4 5 4 6 17 11 7 15 22 19 20 20 17 13 9 11 10 10 10 10 10 12 14 15 16 17 18 19 19 20 19 18 18 17 17 17 17 17 16 17 16 14
2 7 5 4 3 2 3 5 6 14 17 15 13 11 12 15 20 21 21 19 15 13 9 10 10 10 11 12 14 15 17 18 20 20 20 19 19 18 17 16 16 16 15 15 14 14 14 16 13
4 3 4 8 9 9 10 12 10 25 31 25 25 25 21 17 17 17 18 18 16 15 11 10 11 10 11 13 14 16 18 20 20 20 20 20 18 17 16 15 15 13 13 13 12 11 13 11 14
2 5 10 10 6 5 4 5 2 7 3 5 6 9 14 19 16 17 19 19 19 15 11 11 11 11 12 12 14 17 18 20 20 20 20 18 17 16 15 13 11 10 12 12 11 11 12 12 17
2 5 6 2 2 3 1 6 10 19 14 13 12 11 11 12 17 18 15 16 16 13 12 11 11 11 11 12 14 16 18 20 20 20 19 17 16 15 13 10 8 8 10 10 9 10 12 16 19
1 3 3 0 3 1 1 7 6 5 4 12 11 12 13 12 13 16 15 16 15 14 13 12 11 11 11 13 14 16 17 19 19 18 16 15 14 10 7 5 5 6 5 6 10 10 9 16 15
5 3 2 7 1 1 2 7 6 7 7 17 26 25 24 18 14 13 13 14 14 14 13 11 9 10 11 12 14 15 17 16 15 14 14 13 8 5 3 3 3 3 7 6 7 8 9 12 15
5 4 3 4 1 1 4 19 14 29 20 26 30 25 21 20 18 12 13 14 14 13 12 10 8 9 10 11 13 16 14 12 12 12 10 9 7 7 5 4 2 4 6 7 8 8 8 12 13
4 2 2 3 1 3 5 13 17 21 13 14 13 8 8 10 13 13 15 14 14 13 12 9 7 7 8 10 13 13 11 10 10 10 8 6 7 6 2 1 2 5 5 7 4 5 8 11 19
1 1 5 4 1 1 5 19 15 6 5 3 3 4 4 4 14 14 15 15 14 12 11 7 6 5 7 10 11 10 9 8 7 7 7 7 8 5 5 3 4 4 4 4 2 6 9 14 17
3 4 3 4 4 1 6 9 5 3 4 5 5 3 3 4 11 17 17 17 15 12 8 6 5 6 8 9 9 8 6 6 5 5 5 6 7 6 4 3 5 8 1 3 6 8 12 13 21
2 3 2 0 2 3 3 4 5 5 8 5 7 8 5 6 12 16 17 17 15 12 8 7 4 7 6 8 8 5 5 3 4 4 6 8 7 5 4 3 7 10 5 3 9 8 14 16 23
4 2 3 2 3 2 1 3 8 4 6 4 7 12 8 7 10 15 16 16 14 11 9 7 5 5 5 7 5 3 2 2 2 2 2 5 6 5 4 3 5 7 2 4 4 7 15 11 19
6 4 6 4 2 2 2 4 8 4 4 1 1 11 10 10 13 15 16 16 14 11 9 6 6 4 4 5 3 1 1 1 2 2 0 4 5 4 2 3 4 5 3 1 6 1 6 14 18
3 5 3 4 3 5 3 2 11 5 5 3 2 9 12 12 16 18 19 17 14 11 9 6 5 4 3 3 2 2 2 3 3 1 1 2 4 2 2 3 3 3 4 7 6 6 11 13 22
5 4 5 6 3 3 2 6 6 5 2 9 8 2 12 15 17 17 16 14 12 10 8 7 5 5 3 3 2 3 3 3 2 1 1 3 3 3 1 2 3 4 5 5 5 4 9 16 21
4 3 2 6 1 3 3 7 10 2 5 10 5 4 11 16 18 17 16 14 12 9 7 7 6 5 3 3 3 5 4 3 2 2 1 2 4 4 2 2 2 3 3 5 6 6 8 15 15
3 2 3 2 1 3 4 5 6 7 8 9 5 5 6 14 17 18 16 15 12 10 9 8 7 6 3 4 4 6 6 5 3 2 2 3 4 4 3 2 2 3 5 6 7 7 13 17 19
3 2 2 2 3 4 1 5 6 3 4 6 7 9 6 9 15 17 17 15 14 12 10 9 8 6 4 5 6 7 8 6 5 4 4 4 5 4 4 3 3 5 8 3 4 9 9 16 17
1 2 5 3 5 0 2 5 4 4 4 8 12 15 10 5 10 15 18 18 18 14 11 9 9 7 5 6 8 9 9 7 5 4 4 3 5 5 4 4 4 6 7 7 11 12 17 18 15
Wind_Direction
259 251 190 155 62 64 264 257 269 242 238 203 156 187 205 198 171 215 191 171 178 185 190 200 214 235 255 273 282 285 286 285 283 278 272 266 261 253 253 246 240 250 256 255 258 256 248 242 238
217 184 145 110 96 87 262 255 235 226 214 164 181 231 272 258 228 246 180 179 174 184 196 210 228 247 265 276 278 279 282 284 284 283 281 274 268 262 256 252 253 249 251 256 255 255 255 245 238
170 161 142 94 114 191 228 221 234 279 213 196 223 227 251 236 226 225 199 195 190 192 203 220 236 257 265 269 275 278 283 286 289 289 285 280 273 268 264 259 254 252 251 251 257 255 254 255 245
152 137 73 98 219 247 212 255 220 191 218 229 263 284 254 239 233 219 204 201 202 204 215 225 245 249 250 262 273 283 288 291 292 295 295 291 287 282 274 265 259 256 250 244 248 255 251 251 246
151 112 73 92 247 258 245 243 207 199 215 199 190 259 250 247 234 228 201 198 209 218 222 236 247 247 255 263 271 282 291 294 295 294 295 295 294 291 287 279 273 263 252 248 242 245 255 249 244
106 96 77 237 246 259 267 232 178 211 224 200 224 252 255 258 242 218 203 203 207 220 226 241 245 256 266 271 274 280 285 290 292 294 296 296 296 296 293 287 281 272 263 259 252 242 243 245 239
124 97 199 218 262 292 241 173 201 208 219 239 208 198 258 275 230 210 205 205 217 224 234 237 249 262 270 270 273 277 282 287 292 295 296 296 295 292 289 285 281 276 269 265 260 240 234 238 234
147 96 158 232 218 266 216 186 236 216 251 226 199 228 251 263 226 212 207 214 224 230 234 242 256 264 270 272 274 280 286 290 295 299 299 298 298 297 293 286 280 276 272 268 264 253 239 239 240
146 73 231 243 168 247 191 216 221 238 247 231 226 242 249 244 220 213 216 221 228 233 237 248 260 268 268 270 280 289 292 298 303 305 305 305 304 300 295 290 283 275 269 265 262 255 245 240 240
123 138 218 215 206 239 263 209 261 268 240 247 248 250 252 252 240 231 230 233 236 237 241 249 260 263 266 273 283 290 295 300 306 309 306 304 302 300 294 288 282 278 273 266 261 251 243 240 240
172 201 211 252 242 261 267 277 241 220 263 248 242 271 249 246 241 237 237 236 244 237 239 253 258 262 267 276 283 289 295 303 309 309 306 305 305 303 298 294 288 282 277 268 261 252 237 236 238
203 244 229 263 239 258 248 282 275 234 254 269 276 260 256 248 243 244 240 239 233 234 247 255 258 264 269 276 284 291 300 307 310 312 309 308 304 299 294 289 282 278 273 262 254 249 232 237 229
202 247 233 262 269 262 263 255 258 269 275 274 266 262 259 252 248 244 240 238 232 235 247 255 256 261 265 273 282 293 302 306 312 312 310 308 306 302 298 294 288 276 266 254 241 241 227 229 214
207 278 270 281 258 245 226 266 326 269 241 270 270 274 261 247 246 237 229 230 231 235 246 251 254 258 265 276 287 297 303 308 311 311 308 308 309 309 306 301 291 272 258 242 239 240 229 209 209
295 312 311 231 269 234 272 270 234 263 268 269 269 272 277 262 237 235 239 240 235 236 241 248 251 263 276 283 292 299 306 309 311 311 311 310 310 309 307 298 279 270 259 244 241 242 235 209 205
21 66 340 303 147 311 326 260 271 294 274 272 281 273 279 269 256 239 237 231 225 228 236 240 248 264 279 289 299 304 307 311 314 313 313 309 309 309 310 300 275 277 305 244 234 243 220 209 211
359 249 219 318 174 14 160 277 266 304 270 281 285 282 278 267 254 237 225 215 214 220 229 233 248 268 287 298 304 308 312 317 318 321 320 315 316 315 303 295 280 311 311 235 214 239 209 202 199
204 219 242 265 310 149 257 267 269 283 280 277 288 289 279 261 246 229 209 203 203 208 212 224 246 274 288 302 309 312 319 324 330 331 348 357 355 336 331 312 304 313 307 216 221 235 224 200 191
117 164 249 264 301 295 243 281 287 289 269 276 287 300 289 250 202 197 193 194 199 202 207 215 246 271 294 308 313 320 327 336 343 353 5 353 338 322 257 5 351 337 324 236 260 205 204 198 205
104 317 274 269 225 213 336 292 278 292 246 230 290 309 309 207 193 191 193 190 192 202 201 218 250 276 301 312 322 336 338 346 5 12 359 355 345 54 73 38 5 346 302 240 277 212 201 194 196
203 202 217 237 323 183 321 291 324 275 276 248 239 253 244 197 190 189 186 181 188 193 203 232 255 286 301 321 338 344 344 360 16 19 16 28 49 45 58 41 7 5 340 233 271 223 190 183 171
253 212 178 159 52 253 2 283 290 304 297 252 229 218 213 190 185 186 183 182 186 190 210 231 247 279 312 327 355 344 6 9 40 23 27 45 73 54 51 21 344 6 42 80 11 188 190 182 188
221 76 106 71 105 4 320 108 272 337 298 260 221 211 197 178 184 188 184 183 188 195 217 223 247 277 327 343 343 6 5 41 68 31 28 67 84 70 49 8 335 15 6 60 16 192 192 224 199
149 76 48 50 68 40 312 141 283 238 231 226 142 203 190 174 171 176 179 186 192 202 217 218 246 280 323 351 314 13 191 146 130 111 102 90 84 79 62 357 347 43 64 109 22 339 189 186 179
78 74 337 354 5 217 343 88 246 282 262 249 119 200 188 179 176 178 184 190 197 202 218 220 247 267 303 317 279 209 191 167 146 124 93 117 100 84 60 350 30 31 79 144 86 62 188 160 181
177 164 162 211 209 253 28 225 249 213 318 251 268 191 192 189 186 186 190 195 201 198 213 224 247 256 268 272 231 200 195 178 167 232 178 191 185 161 204 339 41 46 116 130 110 117 115 176 183
194 197 148 103 37 52 231 283 297 257 298 277 292 216 211 201 198 195 194 195 198 202 209 225 234 246 248 251 228 196 196 177 164 232 197 200 201 197 159 109 42 54 167 112 132 144 140 143 147
163 147 91 353 188 253 298 287 238 346 338 347 312 295 247 205 202 202 199 195 195 202 212 227 227 237 240 234 220 192 199 180 185 190 212 191 199 202 187 140 73 99 137 108 126 150 146 150 146
136 195 51 156 146 174 183 260 209 313 349 358 354 331 305 220 210 209 208 203 202 207 219 229 227 231 230 230 200 196 191 193 195 202 225 220 214 185 202 170 141 134 148 145 135 127 149 180 172
351 224 164 158 238 111 145 276 187 211 102 57 25 15 355 290 230 223 221 215 214 214 220 227 231 225 228 217 186 202 189 203 200 205 218 207 198 200 189 184 160 162 165 132 120 128 134 138 153
Height
1514 1515 1516 1517 1527 1533 1536 1527 1518 1515 1514 1511 1511 1511 1511 1510 1512 1518 1508 1508 1510 1512 1515 1516 1518 1519 1519 1520 1520 1520 1520 1520 1520 1520 1520 1520 1520 1520 1521 1521 1521 1521 1522 1522 1523 1524 1525 1526 1528
1513 1514 1516 1517 1533 1539 1532 1521 1517 1512 1509 1509 1510 1510 1511 1508 1507 1507 1507 1508 1510 1512 1513 1515 1516 1517 1517 1518 1517 1517 1518 1518 1518 1518 1518 1518 1518 1517 1517 1518 1518 1519 1519 1519 1521 1522 1523 1523 1525
1512 1514 1516 1523 1539 1535 1528 1515 1511 1510 1510 1510 1510 1509 1509 1507 1505 1505 1505 1507 1509 1511 1512 1513 1513 1514 1515 1515 1516 1516 1516 1515 1516 1516 1516 1516 1515 1515 1514 1514 1515 1515 1516 1517 1518 1519 1520 1521 1522
1512 1515 1519 1526 1530 1523 1517 1509 1509 1508 1510 1510 1510 1510 1507 1504 1505 1505 1506 1507 1509 1510 1511 1512 1512 1512 1512 1513 1514 1515 1515 1514 1514 1514 1514 1513 1513 1512 1512 1512 1511 1512 1512 1513 1514 1515 1516 1518 1519
1511 1513 1525 1528 1525 1516 1510 1506 1507 1507 1507 1508 1509 1506 1505 1502 1503 1504 1506 1507 1508 1509 1510 1510 1511 1511 1511 1512 1512 1513 1513 1513 1513 1512 1512 1511 1510 1510 1509 1509 1509 1509 1508 1509 1510 1512 1513 1515 1517
1511 1514 1527 1529 1523 1512 1507 1504 1505 1506 1506 1506 1507 1506 1502 1500 1501 1503 1505 1506 1508 1508 1509 1509 1509 1510 1510 1510 1510 1510 1510 1510 1510 1509 1509 1509 1508 1507 1506 1505 1505 1505 1505 1505 1506 1508 1509 1511 1513
1510 1517 1523 1523 1521 1513 1504 1503 1505 1504 1504 1504 1503 1504 1499 1499 1499 1500 1502 1503 1505 1506 1507 1507 1507 1508 1509 1509 1509 1508 1508 1508 1508 1507 1506 1506 1505 1504 1503 1502 1501 1501 1501 1501 1501 1502 1504 1506 1509
1508 1513 1521 1521 1518 1511 1503 1503 1502 1502 1502 1501 1501 1500 1497 1496 1498 1499 1499 1501 1502 1503 1504 1505 1506 1506 1507 1507 1507 1506 1506 1505 1505 1505 1504 1502 1501 1500 1499 1498 1498 1497 1496 1496 1496 1497 1499 1501 1504
1509 1518 1524 1513 1516 1503 1502 1503 1501 1500 1500 1499 1498 1495 1494 1494 1494 1496 1498 1498 1499 1501 1503 1505 1505 1505 1505 1505 1505 1505 1504 1502 1502 1501 1500 1499 1497 1496 1495 1494 1493 1493 1492 1492 1492 1493 1494 1496 1499
1508 1518 1512 1505 1504 1502 1501 1501 1499 1499 1496 1494 1493 1492 1491 1492 1492 1492 1493 1495 1497 1499 1501 1502 1503 1504 1504 1504 1504 1503 1502 1501 1499 1498 1497 1496 1494 1492 1491 1490 1489 1488 1488 1488 1488 1489 1490 1491 1494
1507 1510 1504 1501 1500 1501 1500 1500 1498 1496 1492 1487 1487 1487 1487 1488 1489 1490 1490 1492 1495 1498 1499 1500 1502 1502 1502 1502 1502 1501 1500 1499 1497 1495 1493 1492 1490 1489 1488 1487 1486 1484 1484 1484 1484 1485 1486 1488 1490
1507 1502 1502 1499 1500 1500 1500 1497 1495 1492 1482 1484 1484 1484 1485 1484 1484 1485 1487 1489 1492 1495 1497 1499 1500 1500 1501 1500 1499 1499 1498 1496 1494 1493 1490 1488 1486 1484 1483 1482 1481 1480 1480 1480 1481 1482 1483 1485 1487
1504 1500 1500 1498 1498 1498 1498 1495 1494 1482 1481 1482 1481 1480 1480 1481 1481 1482 1485 1488 1491 1492 1495 1496 1497 1498 1498 1498 1498 1497 1496 1493 1491 1488 1486 1483 1481 1480 1479 1478 1477 1476 1476 1477 1479 1479 1481 1483 1485
1500 1500 1498 1495 1494 1495 1495 1494 1492 1475 1476 1477 1477 1477 1476 1476 1478 1479 1481 1484 1486 1490 1492 1494 1495 1495 1495 1496 1495 1495 1493 1491 1488 1485 1482 1480 1478 1477 1476 1475 1474 1474 1473 1474 1476 1478 1479 1482 1483
1499 1500 1495 1493 1493 1494 1494 1490 1483 1474 1476 1475 1474 1474 1474 1474 1474 1474 1479 1481 1484 1487 1489 1490 1492 1493 1494 1493 1493 1491 1490 1487 1484 1481 1479 1477 1475 1473 1472 1472 1472 1471 1471 1473 1474 1475 1477 1478 1481
1499 1500 1499 1492 1492 1493 1495 1488 1471 1472 1471 1471 1471 1471 1471 1471 1471 1473 1475 1478 1481 1484 1486 1487 1489 1490 1491 1491 1489 1488 1486 1484 1482 1479 1476 1474 1473 1471 1470 1470 1470 1469 1470 1471 1473 1474 1475 1478 1479
1506 1502 1501 1495 1492 1493 1495 1487 1471 1471 1470 1467 1467 1466 1467 1468 1469 1470 1472 1475 1478 1481 1483 1486 1487 1489 1489 1489 1488 1485 1483 1482 1479 1477 1474 1472 1470 1470 1469 1469 1469 1469 1469 1470 1471 1472 1474 1476 1480
1501 1502 1502 1501 1493 1492 1493 1479 1472 1466 1465 1462 1459 1458 1458 1460 1465 1467 1470 1472 1475 1478 1480 1483 1485 1486 1486 1486 1485 1484 1481 1478 1476 1475 1473 1471 1471 1470 1470 1470 1470 1468 1468 1469 1470 1471 1472 1475 1479
1497 1498 1497 1496 1493 1493 1491 1481 1467 1458 1459 1456 1454 1452 1453 1454 1459 1464 1467 1470 1473 1477 1478 1480 1482 1483 1484 1482 1482 1481 1480 1478 1476 1474 1473 1472 1471 1470 1469 1471 1470 1469 1468 1468 1469 1470 1472 1475 1476
1499 1500 1500 1494 1493 1494 1491 1473 1461 1458 1455 1452 1452 1451 1453 1455 1458 1462 1465 1468 1472 1476 1478 1478 1480 1481 1481 1481 1479 1479 1478 1477 1475 1474 1473 1472 1471 1470 1472 1472 1471 1469 1468 1468 1468 1470 1472 1474 1476
1500 1501 1498 1495 1494 1494 1495 1475 1458 1456 1454 1450 1450 1451 1452 1454 1458 1462 1465 1467 1471 1475 1478 1478 1480 1480 1480 1479 1478 1477 1477 1477 1476 1475 1474 1473 1472 1473 1473 1472 1470 1468 1467 1467 1467 1468 1472 1473 1475
1495 1495 1494 1494 1497 1500 1495 1495 1465 1458 1455 1449 1448 1449 1451 1453 1458 1461 1465 1467 1471 1473 1476 1477 1477 1479 1478 1477 1477 1476 1477 1476 1476 1476 1475 1474 1474 1474 1474 1473 1471 1469 1467 1467 1466 1467 1471 1474 1475
1493 1494 1495 1498 1501 1501 1497 1502 1463 1460 1450 1444 1445 1447 1449 1452 1457 1462 1465 1467 1470 1472 1474 1475 1475 1476 1477 1476 1475 1475 1475 1476 1476 1476 1476 1475 1475 1475 1474 1473 1472 1469 1469 1469 1467 1466 1469 1470 1473
1495 1497 1503 1508 1509 1526 1497 1499 1471 1457 1448 1443 1444 1445 1448 1452 1456 1461 1465 1466 1467 1470 1472 1473 1473 1473 1475 1476 1474 1475 1474 1476 1476 1476 1477 1476 1476 1476 1474 1474 1473 1472 1471 1469 1468 1466 1467 1470 1475
1495 1501 1531 1526 1538 1512 1505 1503 1465 1448 1446 1444 1442 1444 1447 1452 1455 1459 1462 1465 1466 1467 1470 1472 1472 1472 1473 1474 1474 1474 1475 1475 1475 1476 1477 1477 1476 1476 1475 1475 1473 1473 1471 1471 1471 1470 1469 1472 1477
1496 1497 1515 1514 1516 1505 1503 1493 1457 1445 1444 1443 1443 1444 1446 1450 1454 1458 1462 1464 1466 1466 1468 1471 1471 1471 1472 1473 1472 1473 1474 1475 1475 1476 1476 1476 1476 1476 1476 1475 1474 1473 1474 1474 1473 1473 1473 1475 1479
1497 1503 1497 1524 1552 1519 1489 1474 1447 1443 1446 1445 1444 1444 1445 1450 1454 1457 1460 1462 1465 1466 1467 1469 1469 1469 1470 1470 1471 1473 1474 1474 1474 1475 1476 1476 1475 1476 1475 1475 1475 1475 1475 1475 1475 1476 1477 1480 1483
1491 1495 1499 1514 1506 1510 1499 1485 1462 1450 1449 1446 1445 1444 1445 1448 1453 1456 1458 1459 1462 1465 1465 1467 1467 1467 1468 1468 1470 1472 1473 1474 1474 1475 1476 1475 1475 1476 1476 1476 1476 1476 1476 1477 1477 1477 1480 1483 1486
1493 1496 1496 1495 1501 1506 1511 1475 1457 1451 1452 1450 1448 1447 1446 1448 1451 1455 1457 1458 1460 1462 1464 1465 1465 1464 1466 1466 1469 1470 1472 1473 1474 1474 1475 1475 1475 1475 1476 1475 1475 1476 1478 1478 1478 1479 1481 1483 1488
1488 1483 1482 1486 1499 1516 1509 1479 1451 1451 1449 1450 1448 1449 1450 1449 1449 1452 1456 1455 1456 1458 1460 1462 1463 1463 1464 1464 1467 1469 1471 1472 1472 1473 1474 1474 1473 1474 1476 1476 1476 1476 1478 1479 1480 1482 1483 1485 1489